New Philadelphia, OH

10:47 PM EDT on September 26, 2016 (GMT -0400)
Clever

Weather History for KPHD - April, 2013

Change the Weather History Date:

Sunday, April 21, 2013

  Actual Average Record
Temperature  
Mean Temperature 40 °F 53 °F  
Max Temperature 53 °F 65 °F 85 °F (1977)
Min Temperature 27 °F 40 °F 25 °F (1981)
Degree Days  
Heating Degree Days 25 13  
Month to date heating degree days 308 330  
Since 1 July heating degree days 5325 5316  
Cooling Degree Days 0 0  
Month to date cooling degree days 12 0  
Year to date cooling degree days 12 1  
Moisture  
Dew Point 24 °F    
Average Humidity 57    
Maximum Humidity 85    
Minimum Humidity 28    
Precipitation  
Precipitation 0.00 in 0.10 in 1.70 in (1964)
Month to date precipitation 1.69 2.33  
Year to date precipitation 6.48 10.33  
Sea Level Pressure  
Sea Level Pressure 30.52 in    
Wind  
Wind Speed 3 mph (East)    
Max Wind Speed 13 mph    
Max Gust Speed 20 mph    
Visibility 10 miles    
Events      
T = Trace of Precipitation, MM = Missing Value Source: NWS Daily Summary

Daily Weather History Graph

Daily Weather History Graph

Search for Another Location

Airport or City:

Trip Planner

Search our weather history database for the weather conditions in past years. The results will help you decide how hot, cold, wet, or windy it might be!

Date:

Astronomy

Apr. 21, 2013 Rise Set
Actual Time 6:38 AM EDT 8:11 PM EDT
Civil Twilight 6:09 AM EDT 8:40 PM EDT
Nautical Twilight 5:34 AM EDT 9:14 PM EDT
Astronomical Twilight 4:58 AM EDT 9:51 PM EDT
Moon 3:54 PM EDT (4/21) 4:00 AM EDT (4/21)
Length of Visible Light 14h 30m
Length of Day
13h 33m
Waxing Gibbous, 79% of the Moon is Illuminated
Apr 21
Waxing Gibbous
Apr 25
Full
May 2
Last Quarter
May 9
New
May 18
First Quarter

Hourly Weather History & Observations

Time (EDT) Temp. Windchill Dew Point Humidity Pressure Visibility Wind Dir Wind Speed Gust Speed Precip Events Conditions
12:53 AM 32.0 °F - 25.0 °F 75% 30.46 in 10.0 mi Calm Calm - N/A   Clear
1:53 AM 30.9 °F - 25.0 °F 79% 30.47 in 10.0 mi Calm Calm - N/A   Clear
2:53 AM 28.9 °F - 24.1 °F 82% 30.49 in 10.0 mi Calm Calm - N/A   Clear
3:53 AM 28.0 °F - 24.1 °F 85% 30.50 in 10.0 mi Calm Calm - N/A   Clear
4:53 AM 27.0 °F - 23.0 °F 85% 30.52 in 10.0 mi Calm Calm - N/A   Clear
5:53 AM 27.0 °F - 23.0 °F 85% 30.53 in 10.0 mi Calm Calm - N/A   Clear
6:53 AM 27.0 °F - 23.0 °F 85% 30.57 in 10.0 mi Calm Calm - N/A   Clear
7:53 AM 30.0 °F - 27.0 °F 88% 30.60 in 10.0 mi Calm Calm - N/A   Clear
8:53 AM 36.0 °F 31.1 °F 25.0 °F 64% 30.61 in 10.0 mi East 5.8 mph - N/A   Clear
9:53 AM 39.9 °F 33.9 °F 24.1 °F 53% 30.62 in 10.0 mi ENE 9.2 mph - N/A   Clear
10:53 AM 42.1 °F 37.1 °F 23.0 °F 47% 30.62 in 10.0 mi ESE 8.1 mph - N/A   Clear
11:53 AM 44.1 °F 40.8 °F 23.0 °F 43% 30.61 in 10.0 mi Variable 5.8 mph 16.1 mph N/A   Clear
12:53 PM 46.0 °F 41.4 °F 21.9 °F 39% 30.59 in 10.0 mi East 9.2 mph - N/A   Clear
1:53 PM 48.0 °F - 21.0 °F 34% 30.56 in 10.0 mi Calm Calm - N/A   Clear
2:53 PM 50.0 °F - 21.9 °F 33% 30.53 in 10.0 mi ENE 8.1 mph - N/A   Clear
3:53 PM 52.0 °F - 24.1 °F 34% 30.50 in 10.0 mi NE 8.1 mph - N/A   Clear
4:53 PM 53.1 °F - 21.9 °F 30% 30.48 in 10.0 mi Variable 5.8 mph - N/A   Clear
5:53 PM 52.0 °F - 21.0 °F 30% 30.47 in 10.0 mi ESE 5.8 mph - N/A   Clear
6:53 PM 52.0 °F - 21.9 °F 31% 30.47 in 10.0 mi East 5.8 mph - N/A   Clear
7:53 PM 50.0 °F - 21.9 °F 33% 30.47 in 10.0 mi East 3.5 mph - N/A   Clear
8:53 PM 46.0 °F - 25.0 °F 44% 30.48 in 10.0 mi Calm Calm - N/A   Clear
9:53 PM 42.1 °F - 26.1 °F 53% 30.49 in 10.0 mi Calm Calm - N/A   Clear
10:53 PM 39.9 °F - 27.0 °F 60% 30.48 in 10.0 mi Calm Calm - N/A   Clear
11:53 PM 37.9 °F - 25.0 °F 60% 30.47 in 10.0 mi Calm Calm - N/A   Clear